GW2918 Weather Reports


time (UTC)temp
C
wind
direction
speed
KPH
gust
KPH
rain 1hr
cm
rain 24hr
cm
rain mn
cm
humidity
%
barometer
mb
20260906012500 16 326 0.0 4.8 0.00 0.00 0.00 91 1015.9
20260906011455 16 14 3.2 4.8 0.00 0.00 0.00 90 1016.3
20260906010451 17 335 6.4 8.0 0.00 0.00 0.00 90 1015.9
20260906005447 17 10 4.8 12.9 0.00 0.00 0.00 89 1015.8
20260906004445 17 9 4.8 8.0 0.00 0.00 0.00 89 1015.8
20260906003441 16 339 3.2 6.4 0.00 0.00 0.00 90 1015.6
20260906002436 17 244 1.6 6.4 0.00 0.00 0.00 89 1015.3
20260906001433 17 349 4.8 9.7 0.00 0.00 0.00 88 1015.5
20260906000429 17 341 6.4 8.0 0.00 0.00 0.00 88 1015.5
20260905235424 17 347 0.0 8.0 0.00 0.00 0.00 87 1015.2
20260905234420 17 351 3.2 4.8 0.00 0.00 0.00 86 1015.2
20260905233416 18 356 4.8 6.4 0.00 0.00 0.00 85 1015.2
20260905232411 18 359 0.0 6.4 0.00 0.00 0.00 83 1015.3
20260905231408 18 358 0.0 8.0 0.00 0.00 0.00 82 1015.1
20260905230408 18 31 3.2 4.8 0.00 0.00 0.00 82 1015.3
20260905225408 19 34 4.8 4.8 0.00 0.00 0.00 81 1015.2
20260905224405 20 356 3.2 9.7 0.00 0.00 0.00 79 1015.2
20260905223403 20 8 3.2 6.4 0.00 0.00 0.00 78 1015.0
20260905222402 20 359 9.7 9.7 0.00 0.00 0.00 78 1014.9
20260905221400 20 67 1.6 9.7 0.00 0.00 0.00 78 1014.9
20260905220358 19 329 1.6 9.7 0.00 0.00 0.00 79 1014.9
20260905215353 20 52 3.2 6.4 0.00 0.00 0.00 77 1014.9
20260905214350 20 9 3.2 8.0 0.00 0.00 0.00 77 1014.9
20260905213347 20 18 6.4 9.7 0.00 0.00 0.00 76 1014.7
20260905212347 20 337 6.4 11.3 0.00 0.00 0.00 75 1014.7
20260905211343 21 339 12.9 14.5 0.00 0.00 0.00 72 1014.6
20260905210339 20 49 3.2 6.4 0.00 0.00 0.00 75 1014.5
20260905205338 21 352 9.7 9.7 0.00 0.00 0.00 71 1014.7
20260905204334 20 12 4.8 12.9 0.00 0.00 0.00 75 1014.6
20260905203329 21 7 4.8 11.3 0.00 0.00 0.00 75 1014.6
20260905202325 21 331 8.0 16.1 0.00 0.00 0.00 70 1014.3
20260905201322 21 326 14.5 14.5 0.00 0.00 0.00 72 1014.4
20260905200318 20 291 3.2 8.0 0.00 0.00 0.00 74 1014.3
20260905195317 22 341 12.9 14.5 0.00 0.00 0.00 70 1014.4
20260905194312 21 9 3.2 12.9 0.00 0.00 0.00 75 1014.6
20260905193313 21 312 3.2 12.9 0.00 0.00 0.00 74 1014.7
20260905192310 21 54 6.4 8.0 0.00 0.00 0.00 73 1014.5
20260905191308 22 313 3.2 8.0 0.00 0.00 0.00 68 1014.6
20260905190306 21 22 3.2 11.3 0.00 0.00 0.00 73 1014.7
20260905185306 22 295 6.4 9.7 0.00 0.00 0.00 69 1014.7
20260905184305 21 70 3.2 6.4 0.00 0.00 0.00 72 1014.8
20260905183300 21 3 9.7 11.3 0.00 0.00 0.00 70 1014.6
20260905182259 21 345 12.9 17.7 0.00 0.00 0.00 67 1014.9
20260905181254 21 64 0.0 9.7 0.00 0.00 0.00 78 1014.7
20260905180249 21 349 3.2 12.9 0.00 0.00 0.00 70 1014.6
20260905175244 21 66 3.2 14.5 0.00 0.00 0.00 72 1014.8
20260905174241 21 344 3.2 14.5 0.00 0.00 0.00 74 1014.8
20260905173238 20 18 3.2 14.5 0.00 0.00 0.00 74 1015.0
20260905172237 20 157 0.0 11.3 0.00 0.00 0.00 79 1014.9
20260905171235 20 352 1.6 12.9 0.00 0.00 0.00 80 1015.1
20260905170233 20 302 4.8 14.5 0.00 0.00 0.00 79 1015.4
20260905165233 20 73 14.5 19.3 0.00 0.00 0.00 78 1015.4
20260905164234 20 0 9.7 16.1 0.00 0.00 0.00 78 1015.2
20260905163232 20 312 3.2 11.3 0.00 0.00 0.00 76 1015.3
20260905162227 21 349 3.2 4.8 0.00 0.00 0.00 76 1015.3
20260905161226 20 10 1.6 12.9 0.00 0.00 0.00 79 1015.5
20260905160225 20 356 12.9 14.5 0.00 0.00 0.00 77 1015.3
20260905155225 20 314 4.8 14.5 0.00 0.00 0.00 80 1015.4
20260905154221 20 328 11.3 14.5 0.00 0.00 0.00 78 1015.5
20260905153218 19 345 4.8 12.9 0.00 0.00 0.00 81 1015.4
20260905152213 19 30 3.2 8.0 0.00 0.00 0.00 82 1015.5
20260905151209 19 353 9.7 12.9 0.00 0.00 0.00 82 1015.5
20260905150208 19 0 8.0 20.9 0.00 0.00 0.00 82 1015.4
20260905145207 19 44 3.2 14.5 0.00 0.00 0.00 82 1015.6
20260905144206 19 104 12.9 14.5 0.00 0.00 0.00 84 1015.3
20260905143205 18 41 4.8 16.1 0.00 0.00 0.00 85 1015.4
20260905142204 18 96 9.7 11.3 0.00 0.00 0.00 87 1015.5
20260905141201 18 87 12.9 17.7 0.00 0.00 0.00 87 1015.3
20260905140156 18 43 11.3 22.5 0.00 0.00 0.00 86 1015.5
20260905135153 17 348 17.7 19.3 0.00 0.00 0.00 90 1015.4
20260905134151 16 74 11.3 12.9 0.00 0.00 0.00 92 1015.4
20260905133147 17 355 4.8 8.0 0.00 0.00 0.00 92 1015.4
20260905132148 17 16 3.2 9.7 0.00 0.00 0.00 93 1015.5
20260905131143 17 26 4.8 22.5 0.00 0.00 0.00 94 1015.4
20260905130143 18 313 6.4 11.3 0.00 0.00 0.00 91 1015.4
20260905125140 18 302 8.0 9.7 0.00 0.00 0.00 91 1015.3
20260905124137 17 343 4.8 14.5 0.00 0.00 0.00 94 1015.1
20260905123136 17 20 3.2 11.3 0.00 0.00 0.00 93 1015.2
20260905122130 17 40 4.8 6.4 0.00 0.00 0.00 92 1015.4
20260905121126 17 43 1.6 4.8 0.00 0.00 0.00 93 1015.1
20260905120120 16 335 3.2 8.0 0.00 0.00 0.00 95 1015.4
20260905115120 16 345 4.8 4.8 0.00 0.00 0.00 95 1015.3
20260905114118 16 2 4.8 6.4 0.00 0.00 0.00 97 1015.3
20260905113115 15 15 3.2 8.0 0.00 0.00 0.00 99 1015.1
20260905112111 15 257 0.0 3.2 0.00 0.00 0.00 99 1015.0
20260905111110 15 53 0.0 3.2 0.00 0.00 0.00 99 1014.9
20260905110105 14 109 1.6 3.2 0.00 0.00 0.00 99 1014.6
20260905105105 14 96 1.6 3.2 0.00 0.00 0.00 99 1014.8
20260905104100 14 13 0.0 3.2 0.00 0.00 0.00 99 1014.4
20260905103058 14 65 0.0 3.2 0.00 0.00 0.00 99 1014.4
20260905102056 15 139 0.0 3.2 0.00 0.00 0.00 99 1014.5
20260905101052 15 38 3.2 4.8 0.00 0.00 0.00 99 1014.1
20260905100048 15 29 0.0 1.6 0.00 0.00 0.00 99 1014.3
20260905095044 15 7 3.2 3.2 0.00 0.00 0.00 99 1014.1
20260905094044 15 346 0.0 3.2 0.00 0.00 0.00 99 1014.3
20260905093041 15 31 3.2 3.2 0.00 0.00 0.00 99 1014.1
20260905092037 15 61 3.2 4.8 0.00 0.00 0.00 99 1014.0
20260905091036 15 29 0.0 4.8 0.00 0.00 0.00 98 1013.9
20260905090032 15 357 0.0 3.2 0.00 0.00 0.00 98 1014.0
20260905085026 15 144 1.6 4.8 0.00 0.00 0.00 97 1014.3
20260905084026 15 18 3.2 3.2 0.00 0.00 0.00 97 1014.3
20260905083024 15 69 0.0 1.6 0.00 0.00 0.00 97 1014.4
20260905082021 15 217 0.0 4.8 0.00 0.00 0.00 96 1014.3
20260905081020 15 350 1.6 3.2 0.00 0.00 0.00 96 1014.4
20260905080016 15 202 0.0 0.0 0.00 0.00 0.00 97 1014.5
20260905075014 15 313 0.0 1.6 0.00 0.00 0.00 96 1014.4
20260905074011 15 207 1.6 1.6 0.00 0.00 0.00 96 1014.4
20260905073008 16 258 0.0 1.6 0.00 0.00 0.00 95 1014.3
20260905072003 16 214 1.6 3.2 0.00 0.00 0.00 94 1014.3
20260905070959 16 283 0.0 1.6 0.00 0.00 0.00 94 1014.6
20260905065955 16 142 0.0 1.6 0.00 0.00 0.00 93 1014.6
20260905064954 16 143 0.0 3.2 0.00 0.00 0.00 94 1014.8
20260905063950 16 170 0.0 3.2 0.00 0.00 0.00 95 1014.7
20260905062947 17 216 0.0 3.2 0.00 0.00 0.00 93 1014.8
20260905061942 17 307 1.6 3.2 0.00 0.00 0.00 93 1014.9
20260905060941 17 24 0.0 3.2 0.00 0.00 0.00 91 1014.9
20260905055937 17 48 0.0 3.2 0.00 0.00 0.00 91 1015.0
20260905054937 17 8 3.2 6.4 0.00 0.00 0.00 90 1015.1
20260905053932 17 5 1.6 6.4 0.00 0.00 0.00 90 1015.1
20260905052929 17 23 0.0 3.2 0.00 0.00 0.00 91 1015.2
20260905051928 17 63 3.2 3.2 0.00 0.00 0.00 90 1015.2
20260905050927 18 19 0.0 3.2 0.00 0.00 0.00 91 1015.4
20260905045924 18 242 0.0 3.2 0.00 0.00 0.00 91 1015.6
20260905044920 18 20 0.0 4.8 0.00 0.00 0.00 92 1015.5
20260905043920 18 1 0.0 3.2 0.00 0.00 0.00 92 1015.6
20260905042920 18 0 4.8 4.8 0.00 0.00 0.00 91 1015.5
20260905041916 18 348 1.6 3.2 0.00 0.00 0.00 91 1015.4
20260905040912 18 31 3.2 4.8 0.00 0.00 0.00 91 1015.4
20260905035911 18 348 3.2 4.8 0.00 0.00 0.00 91 1015.3
20260905034909 18 354 4.8 4.8 0.00 0.00 0.00 91 1015.5
20260905033909 18 352 6.4 8.0 0.00 0.00 0.00 91 1015.4
20260905032904 18 354 3.2 6.4 0.00 0.00 0.00 92 1015.3
20260905031900 18 344 3.2 9.7 0.00 0.00 0.00 93 1015.4
20260905030857 18 345 3.2 8.0 0.00 0.00 0.00 92 1015.2
20260905025858 18 4 3.2 6.4 0.00 0.00 0.00 92 1015.1
20260905024856 18 339 4.8 4.8 0.00 0.00 0.00 91 1015.1
20260905023851 18 30 1.6 3.2 0.00 0.00 0.00 90 1015.5
20260905022851 18 102 0.0 4.8 0.00 0.00 0.00 89 1015.3
20260905021847 19 47 1.6 6.4 0.00 0.00 0.00 89 1015.3
20260905020843 19 11 3.2 6.4 0.00 0.00 0.00 88 1015.6
20260905015843 19 39 1.6 6.4 0.00 0.00 0.00 89 1015.4
20260905014842 19 357 3.2 6.4 0.00 0.00 0.00 90 1015.4
20260905013838 19 12 3.2 6.4 0.00 0.00 0.00 87 1015.4